THORAD AGENA D DEB, 5389

Orbit data source: Space-Track

THORAD AGENA D DEB, 5389 is space debris in SSO originally from a launch on Wed, 08 Apr 1970 UTC launched from the Air Force Western Test Range (AFWTR). Debris objects in space refer to the collection of defunct objects orbiting the Earth. Examples of debris include non-operational satellites, rocket bodies, and fragments generated from explosions, collisions, or faulty payload assembly.

Loading next visibility...
Identifier
5389, 1970-025KU
Orbit
SSO
Country
Flag of USUS
Related business
Manufacturer
Unknown
Mission
Spacecraft
Bus & Motor
Unknown
Mass
Unknown
Launch date (UTC)
1970-04-08 (56 years ago)
Launch vehicle
Unknown
Launch site
Air Force Western Test Range (AFWTR)
Object type
Payload
Rocket body
Debris
Shape & HBR
Unknown shape, 0.1 m
Radar Cross Section
Medium (>0.1 m² and <1 m²)

Expand to show TLE details & history
Last TLE update: 1 day ago

TLE from 1 day ago
0 THORAD AGENA D DEB
1 05389U 70025KU  26207.93678538  .00000092  00000-0  33700-3 0  9992
2 05389  99.7956 239.7701 0201768 216.0880 267.2529 13.11274271692638
Epoch: 2026-07-26T22:28Z
TLE epoch observation values (Epoch: 2026-07-26T22:28:58.256Z)
Latitude
57.69772°
Longitude
153.66567°
Altitude
1,238.262 km
Speed
7.236 km/s
True Right ascension
05h 02m 08s
True Declination
57° 33' 07"
Sunlit
Object was in daylight at epoch
Visualization orbit readout
Latitude
Unknown
Longitude
Unknown
Altitude
Unknown
Speed
Unknown
Apparent Right ascension
Unknown
Apparent Declination
Unknown
Sunlit
N/A
Visualization observer readout
Local Sidereal Time
14:25:27
Azimuth
Unknown
Elevation
Unknown
Doppler factor
Unknown
Orbital elements
Apogee altitude
1,368.807 km
Perigee altitude
1,062.373 km
Semi-major axis
7,593.727 km
Eccentricity
0.02018
Inclination
99.7956°
RAAN
239.7701°
Arg. of periapsis
216.088°
True anomaly
264.94688°
Mean anomaly
267.2529°
Eccentric anomaly
266.09953°
Mean motion
3.2799 °/min
Orbital period
109.76 mins
BSTAR
0.000337

Documentation

Showing up to 5 results
|